Location: Eaton
(41.3139°N, 82.0207°W)
Time: 13:13:20
(UTC+00:00)

In-Cosmos 22 - Pass Details

Date: 17 June 2021
Orbit: 785 x 876 km, 81.2° (Epoch: 26 July)

Event Time Altitude Azimuth Distance (km) Brightness Sun altitude
Exits shadow 02:04:32 - 170° (S) 2,697 6.3 -9.8°
Reaches altitude 10° 02:05:28 10° 168° (SSE) 2,345 6.0 -10.0°
Maximum altitude 02:10:32 49° 94° (E) 1,006 4.3 -10.6°
Drops below altitude 10° 02:15:37 10° 21° (NNE) 2,355 6.9 -11.3°
Sets 02:18:03 0° 16° (NNE) 3,293 7.7 -11.6°
